マクノート彗星

P/2008 O2 ( McNaught )

English version
Home page
Total 6,336 html files since Dec. 4, 1995
Updated on November 26, 2008

---------------------------------------------------------------------

・ プロフィール

発見日 2008年7月28日
発見光度 17.7等
発見者 R. H. McNaught (Siding Spring)

・ 写真集

・ 軌道要素

Epoch 2009 May 9.0 TT = JDT 2454960.5
T 2009 Apr. 21.67008 TT                                 MPC
q   3.8037453            (2000.0)            P               Q
n   0.10347211     Peri.   27.47416     +0.98967575     +0.10922023
a   4.4935252      Node   325.86019     -0.14166723     +0.84364460
e   0.1535053      Incl.    9.51846     +0.02173238     +0.52567550
P   9.53
From 313 observations 2008 July 28-Nov. 19, mean residual 0".55.

・ 光度変化

        m1 = 9.2 + 5 logΔ + 10.0 log r

---------------------------------------------------------------------

軌道要素はM.P.E.C. 2008-W41に掲載されたものです。
光度グラフはComet for Windowsで作成したものです。

---------------------------------------------------------------------

Copyright(C) 1995-2008 Seiichi Yoshida (comet@aerith.net). All rights reserved.